Theta_e
287 287 286 286 286 286 285 284 284 283 282 281 281 281 281 280 280 280 280 281 280 281 281 281 281 282 281 282 282 282 282 282 281 283 285 287 286 287 288 289 290 289 290
287 287 286 286 285 285 284 283 282 281 281 280 279 279 279 279 279 278 278 279 278 278 279 279 279 279 279 280 281 280 281 281 280 279 282 283 283 285 286 286 287 288 288
286 286 285 285 285 284 283 282 281 280 279 278 278 277 277 277 277 277 278 278 278 278 278 277 277 277 276 277 277 277 278 279 280 279 279 282 283 284 283 285 286 287 288
286 285 285 285 285 284 282 280 279 278 277 277 277 276 275 275 276 276 277 277 278 277 277 277 276 276 275 275 275 275 276 277 277 277 278 279 280 281 282 282 282 286 286
285 285 285 285 284 282 280 278 277 276 276 275 275 274 274 274 274 276 276 277 276 276 276 276 276 275 275 275 275 275 275 274 274 274 275 275 276 277 278 280 280 282 283
284 284 284 283 281 280 278 276 275 274 274 274 273 273 272 273 273 275 276 275 275 274 274 274 274 274 274 275 275 276 276 274 273 273 273 272 273 275 277 277 277 277 275
284 283 282 281 279 278 276 274 273 273 272 272 272 271 271 272 273 275 275 274 274 274 273 273 273 273 273 273 274 275 275 276 277 275 273 273 273 274 275 274 275 275 275
283 282 281 279 277 275 274 273 272 272 271 271 271 270 271 271 272 273 274 274 274 273 273 273 272 272 273 273 273 273 274 274 275 275 275 276 276 277 277 277 277 277 278
282 281 279 277 274 273 272 271 271 271 270 270 270 270 268 269 271 272 273 273 273 272 273 273 273 273 274 276 275 274 275 275 277 278 279 279 280 280 280 278 276 275 274
281 280 277 275 272 271 271 270 271 270 269 269 269 269 268 267 269 271 272 273 272 273 273 274 275 275 276 277 276 275 273 275 276 276 277 278 278 278 279 278 277 273 273
279 276 274 272 270 270 269 269 268 268 267 267 266 267 267 267 268 271 273 273 273 273 273 274 274 276 277 278 278 276 274 276 275 275 275 276 277 277 278 278 278 276 274
275 273 271 269 270 268 266 267 266 266 265 265 266 266 268 268 269 271 273 274 275 274 273 274 274 276 276 276 274 275 275 275 272 272 272 273 273 275 276 277 277 277 277
271 269 268 267 267 267 266 266 267 266 266 267 267 267 268 269 270 271 272 274 275 274 275 275 274 273 272 271 271 272 271 270 269 269 269 270 271 273 274 274 275 276 276
269 268 267 266 267 266 267 267 267 267 267 266 266 266 268 269 269 271 271 273 275 275 274 270 270 269 269 269 267 268 268 268 267 267 268 269 270 270 271 272 272 272 272
268 267 268 268 266 268 267 268 267 267 267 265 266 266 267 268 270 272 274 274 274 274 271 267 266 265 265 266 266 266 267 267 266 267 267 267 267 268 269 271 270 271 270
268 267 268 268 268 267 266 266 268 269 270 271 272 272 272 273 274 273 274 274 274 272 267 264 263 264 264 264 264 264 265 265 266 266 265 266 266 267 268 269 270 270 269
269 269 268 266 267 266 265 264 264 266 266 267 268 269 271 272 271 272 273 273 269 267 263 262 262 262 263 263 264 264 264 265 265 265 265 266 267 267 267 268 270 271 270
265 264 267 266 265 265 264 263 263 262 262 262 263 264 266 268 270 270 271 269 263 262 261 261 261 262 262 262 263 263 263 264 264 265 265 265 266 267 267 268 269 269 270
263 264 263 263 263 262 262 261 261 260 260 260 260 262 262 264 266 268 267 262 259 259 260 260 261 261 261 262 262 262 263 263 263 264 265 266 267 267 267 267 268 268 269
260 259 260 261 261 260 260 260 260 259 259 259 259 259 260 259 260 262 261 260 259 259 259 259 260 260 260 260 261 261 262 262 263 264 265 266 267 267 266 266 267 268 269
260 260 258 260 259 260 259 259 259 259 258 258 258 260 262 260 262 261 259 258 258 258 258 258 259 259 259 259 260 260 261 261 262 263 264 265 267 266 266 267 268 268 269
259 259 258 258 259 258 258 258 258 257 257 257 258 259 262 261 260 258 258 257 258 257 257 257 257 258 259 258 259 259 259 259 261 263 264 264 266 266 266 267 267 268 269
257 257 257 257 257 256 256 257 256 257 257 257 257 257 258 257 257 257 256 256 256 256 257 257 256 256 258 258 259 259 258 259 261 261 262 264 265 266 266 266 266 266 267
257 257 257 258 258 257 257 257 258 257 256 257 258 258 258 257 257 256 255 255 255 256 256 255 255 255 255 256 258 259 259 259 261 261 263 266 265 265 265 265 265 265 266
257 257 257 257 257 257 257 258 258 258 258 258 258 258 257 256 255 255 255 255 254 254 254 254 254 255 255 254 255 255 256 257 258 263 267 266 264 264 264 264 264 265 264
257 257 257 257 257 257 257 257 257 257 257 257 257 257 256 255 255 254 254 254 254 254 254 254 254 254 254 255 256 257 258 262 263 267 265 266 264 264 265 265 264 265 264
Wind_Speed
10 10 10 8 8 7 7 7 6 5 4 4 5 5 5 6 6 6 6 6 8 8 9 9 11 11 9 9 9 10 10 10 13 12 12 14 17 17 13 12 12 13 12
11 10 10 9 8 7 7 6 5 5 4 4 4 4 5 5 6 7 7 7 9 10 10 10 11 9 12 11 9 12 12 12 12 18 15 12 16 16 16 17 12 11 12
11 11 10 9 8 7 7 6 5 4 3 3 2 3 4 5 6 6 8 9 9 10 10 11 12 13 13 11 12 12 12 12 12 12 16 12 12 12 15 15 14 13 11
12 12 10 9 8 7 6 5 4 3 2 1 1 3 4 5 6 7 8 9 10 10 11 11 12 13 13 14 13 14 13 12 13 12 13 14 12 12 11 12 13 10 10
13 12 11 9 8 7 7 5 4 3 1 0 2 3 4 5 4 8 9 10 11 12 11 11 12 13 19 17 12 13 15 13 12 12 13 14 13 11 11 10 12 11 12
13 12 10 10 9 8 7 5 4 3 1 1 2 3 5 4 8 11 11 10 11 11 12 12 12 15 15 19 21 22 19 14 14 12 12 14 17 13 12 11 12 12 14
11 10 10 9 9 8 7 5 4 3 2 3 4 4 5 5 8 12 14 10 11 11 12 12 12 10 15 14 18 22 21 23 23 16 16 15 16 15 15 15 15 14 15
10 9 9 9 8 8 7 5 4 4 4 4 4 5 5 6 10 13 14 11 10 11 12 13 14 15 15 16 17 17 18 17 17 13 16 16 16 16 16 16 16 16 15
10 10 10 10 8 8 6 5 4 4 4 4 4 4 6 7 11 13 12 10 10 11 11 13 14 16 21 24 18 17 17 16 19 28 29 30 31 30 24 13 11 12 13
10 10 10 9 8 8 7 6 4 4 5 4 5 6 8 8 11 12 11 8 10 10 12 13 17 16 25 27 18 17 18 16 16 17 17 19 22 19 27 17 12 13 13
7 8 9 8 8 7 6 4 4 4 5 5 7 7 8 8 9 12 13 9 9 9 10 10 10 22 26 27 28 16 17 22 20 15 12 11 11 11 10 11 13 12 13
9 9 9 8 6 5 6 5 5 5 6 6 6 6 5 7 9 11 13 14 15 10 11 10 12 24 29 29 24 26 27 23 10 10 10 10 11 10 10 11 13 13 13
8 8 8 7 6 6 6 6 5 6 5 5 5 6 5 5 6 11 14 16 17 12 10 14 22 23 23 18 20 23 17 9 9 9 10 11 10 11 14 13 13 15 16
9 9 8 7 7 6 5 5 5 5 5 5 5 6 6 6 6 6 7 9 12 12 9 7 13 15 14 14 11 12 9 9 10 11 10 11 11 10 10 10 11 10 11
8 8 8 7 7 7 7 6 7 7 6 4 5 6 7 7 7 11 13 9 9 9 9 7 8 8 9 9 9 9 9 10 10 10 10 10 11 11 11 10 10 10 11
9 8 7 7 7 6 6 6 12 13 13 14 15 12 8 16 16 17 19 18 15 15 6 7 8 8 8 9 10 10 9 11 10 10 10 10 10 11 11 11 10 10 12
9 8 6 6 6 6 6 6 6 5 9 11 11 12 15 14 16 17 17 17 11 10 4 6 7 7 8 8 9 10 11 10 12 10 10 10 10 11 13 11 11 10 11
4 2 5 6 6 6 6 6 5 5 6 5 5 7 11 14 15 14 16 10 5 4 4 6 7 7 8 8 9 10 10 10 10 10 10 10 10 11 12 11 11 12 11
5 4 5 4 4 4 4 4 5 6 6 6 6 7 6 9 12 14 8 3 5 6 5 7 7 7 8 8 9 9 10 10 11 11 11 11 11 10 11 11 12 16 16
4 4 4 4 4 5 5 5 6 6 7 6 6 7 4 3 4 4 4 4 5 6 6 7 7 7 8 8 9 9 9 10 10 10 10 11 11 10 11 12 12 12 12
3 4 5 4 4 5 5 6 6 6 7 7 7 6 11 8 7 5 5 5 6 6 6 7 7 7 8 8 8 9 9 10 9 10 10 11 11 11 11 11 12 12 12
3 3 3 4 4 5 6 6 6 6 7 8 7 7 12 6 6 6 6 6 6 6 6 7 7 7 8 8 8 9 9 10 10 10 10 11 11 11 10 11 11 11 11
3 3 3 4 4 5 5 6 6 7 8 8 7 7 6 6 6 6 7 6 6 6 6 6 7 7 8 7 8 9 9 9 9 10 11 11 10 10 10 10 10 10 9
3 4 4 4 4 5 6 7 7 8 8 8 7 7 7 7 7 7 7 6 6 7 7 6 7 9 9 8 8 9 9 9 9 11 15 10 9 10 9 9 9 11 9
3 4 4 5 5 6 7 8 7 8 8 8 7 7 7 7 7 7 7 6 6 7 8 7 6 9 11 11 12 15 14 17 13 15 9 8 9 11 8 7 8 8 9
4 4 5 5 6 6 7 8 8 7 8 7 7 7 7 7 7 7 7 7 7 7 8 7 8 12 13 11 13 14 15 17 15 15 5 5 6 6 6 7 10 7 8
Wind_Direction
163 156 153 147 137 127 121 116 113 108 94 67 40 17 7 1 353 341 339 334 331 326 323 320 314 314 306 306 302 296 291 287 284 288 290 296 294 296 294 291 290 286 288
171 169 165 159 151 144 136 133 131 123 103 62 35 18 2 350 341 337 334 334 327 324 323 319 314 316 307 305 298 295 290 290 288 290 288 291 291 299 297 294 288 284 282
180 179 174 173 166 160 152 144 138 128 98 74 35 10 349 338 331 329 329 324 323 319 321 318 316 316 310 311 307 303 300 298 293 288 289 288 288 292 292 293 291 286 283
190 188 188 183 179 168 153 151 146 133 133 92 29 353 339 328 319 327 323 321 316 315 314 312 311 309 308 312 306 301 298 298 296 290 287 291 289 289 290 294 286 283 294
195 195 199 184 176 170 163 160 157 153 131 19 331 336 327 316 328 327 322 317 313 312 310 307 304 308 302 296 295 299 301 299 297 294 289 292 295 297 302 309 300 300 293
199 204 195 184 176 178 170 166 176 170 189 280 287 297 306 304 315 312 313 309 306 304 305 307 305 302 297 302 297 295 294 293 288 292 294 286 290 294 293 291 295 298 294
197 198 189 181 183 183 175 176 187 202 241 260 264 279 285 296 303 310 313 302 301 302 303 302 303 300 300 298 298 296 294 287 282 285 286 287 290 292 296 293 287 279 280
194 187 180 181 185 182 182 190 194 212 235 255 271 279 293 300 305 308 306 298 295 295 296 296 295 298 299 298 293 286 281 279 280 277 273 273 275 276 272 276 276 276 274
197 196 186 179 178 183 190 200 206 225 245 260 257 272 281 288 295 299 304 298 292 292 292 288 290 293 296 292 285 285 284 276 271 270 268 271 273 276 278 280 275 278 281
200 192 180 177 170 175 186 196 207 221 250 260 266 267 265 273 285 294 299 291 294 297 296 291 285 288 296 300 293 287 281 283 283 278 274 271 272 270 274 274 278 276 279
154 156 166 168 167 175 177 192 207 231 251 255 265 266 268 268 276 287 290 290 290 298 297 300 299 301 304 311 308 308 305 307 309 302 299 295 285 273 264 259 255 260 269
154 162 164 160 169 171 181 197 218 228 241 251 261 270 255 260 267 284 294 293 301 301 297 298 305 315 320 313 313 309 306 312 310 302 301 295 290 286 284 282 275 271 266
153 155 159 162 177 177 194 212 227 226 244 259 264 278 280 279 284 292 294 297 298 295 297 309 326 317 316 315 314 317 322 315 310 305 302 299 300 303 302 293 285 279 276
158 166 168 178 187 194 208 216 229 236 242 248 258 270 282 287 288 291 292 287 284 302 322 326 317 320 318 316 317 327 325 319 314 302 302 305 304 300 294 292 289 288 282
163 170 182 195 198 204 218 223 227 234 233 239 252 261 276 283 284 283 298 299 301 322 343 330 322 322 326 325 327 327 325 322 315 310 307 304 302 300 295 295 290 289 280
173 183 191 195 199 212 222 230 235 247 250 257 270 273 275 271 292 298 294 302 327 337 334 311 309 315 317 320 323 322 320 318 319 315 306 302 303 302 299 297 289 277 277
182 182 186 203 207 214 219 234 250 223 254 264 268 278 281 285 292 289 298 302 355 352 300 298 296 305 308 311 314 313 313 315 313 308 308 305 302 300 300 296 296 285 276
174 170 198 204 211 213 220 233 242 252 259 268 264 276 281 279 281 290 291 330 318 306 282 286 290 297 301 305 308 308 308 309 310 309 305 300 298 300 301 297 296 294 286
192 208 211 220 222 230 230 234 246 252 257 263 277 281 267 283 284 281 311 279 275 277 281 283 285 292 295 298 299 300 302 301 306 303 301 302 301 304 299 295 294 293 292
215 233 218 217 221 233 235 241 247 251 259 259 255 257 268 244 254 255 255 259 263 264 270 273 280 285 286 289 293 298 297 301 303 300 301 304 303 309 301 299 297 298 296
206 214 228 231 233 243 251 248 252 259 261 262 264 258 247 241 263 255 264 259 260 268 272 276 282 284 284 286 291 293 295 297 297 298 300 306 311 309 304 300 300 300 299
206 212 216 241 252 248 253 257 259 258 259 261 267 267 275 279 264 262 262 262 262 263 269 274 279 280 283 285 289 291 293 293 295 300 304 304 309 310 308 307 307 308 309
210 212 218 236 245 255 256 256 258 257 259 260 263 265 258 251 250 254 260 263 263 262 262 260 269 275 277 275 279 282 283 283 291 298 296 299 313 312 312 312 315 316 321
213 229 244 252 255 257 262 267 266 258 261 263 262 261 261 259 258 259 260 262 259 264 263 259 256 264 279 280 285 284 279 277 286 286 290 301 308 314 314 317 320 325 326
236 251 254 262 267 270 275 272 270 269 267 266 266 263 263 263 263 261 262 261 261 264 268 266 263 268 272 274 275 280 280 287 284 284 289 302 311 312 318 320 330 331 341
247 254 259 262 258 260 267 272 271 269 267 266 264 263 263 264 265 266 264 264 266 266 274 273 271 274 279 280 278 280 287 294 299 296 291 314 316 322 329 337 343 348 351